When you browse on this site, cookies collect data to enhance your experience and personalize the content and advertising you see.
Visit our Privacy Policy to learn more. By continuing to use the site, you agree to this use of cookies and data.
  • Em Portugal
  • Lista de países
  • Para 7 dias
  • Temperatura da água
  • Mapa do tempo
  • Widgets de tempo
  • user-avatar
    Iniciar Sessão

    Previsão horária em Sulem

    Hoje, 3 Junho, Quarta-feira

    Tempo Temperatura Precipitação Vento Pressão Humidade
    00:00 +6°C° 0 mm 0 m/s 744 mmHg 83%
    01:00 +6°C° 0 mm 0 m/s 744 mmHg 85%
    02:00 +5°C° 0 mm 0 m/s 744 mmHg 87%
    03:00 +5°C° 0 mm 0 m/s 744 mmHg 88%
    04:00 +6°C° 0 mm 1 m/s 745 mmHg 90%
    05:00 +8°C° 0 mm 1 m/s 744 mmHg 80%
    06:00 +10°C° 0 mm 1 m/s 744 mmHg 70%
    07:00 +12°C° 0 mm 1 m/s 744 mmHg 60%
    08:00 +14°C° 0 mm 1 m/s 744 mmHg 55%
    09:00 +15°C° 0 mm 2 m/s 744 mmHg 50%
    10:00 +16°C° 0 mm 2 m/s 744 mmHg 45%
    11:00 +16°C° 0 mm 2 m/s 744 mmHg 42%
    12:00 +17°C° 0 mm 2 m/s 744 mmHg 40%
    13:00 +18°C° 0 mm 2 m/s 744 mmHg 38%
    14:00 +18°C° 0 mm 2 m/s 744 mmHg 38%
    15:00 +18°C° 0 mm 2 m/s 744 mmHg 39%
    16:00 +18°C° 0 mm 2 m/s 744 mmHg 39%
    17:00 +17°C° 0 mm 2 m/s 744 mmHg 46%
    18:00 +16°C° 0 mm 2 m/s 744 mmHg 52%
    19:00 +15°C° 0 mm 1 m/s 744 mmHg 59%
    20:00 +13°C° 0 mm 1 m/s 744 mmHg 64%
    21:00 +11°C° 0 mm 1 m/s 744 mmHg 69%
    22:00 +9°C° 0 mm 1 m/s 745 mmHg 75%
    23:00 +8°C° 0 mm 1 m/s 745 mmHg 76%

    Amanhã, 4 Junho, Quinta-feira

    Tempo Temperatura Precipitação Vento Pressão Humidade
    00:00 +8°C° 0 mm 1 m/s 745 mmHg 78%
    01:00 +7°C° 0 mm 1 m/s 745 mmHg 79%
    02:00 +7°C° 0 mm 1 m/s 745 mmHg 79%
    03:00 +7°C° 0 mm 1 m/s 746 mmHg 78%
    04:00 +7°C° 0 mm 1 m/s 746 mmHg 78%
    05:00 +9°C° 0 mm 1 m/s 746 mmHg 70%
    06:00 +10°C° 0 mm 2 m/s 746 mmHg 61%
    07:00 +13°C° 0 mm 2 m/s 746 mmHg 53%
    08:00 +15°C° 0 mm 2 m/s 746 mmHg 49%
    09:00 +16°C° 0 mm 2 m/s 746 mmHg 44%
    10:00 +17°C° 0 mm 3 m/s 747 mmHg 40%
    11:00 +18°C° 0 mm 2 m/s 746 mmHg 38%
    12:00 +18°C° 0 mm 2 m/s 746 mmHg 36%
    13:00 +19°C° 0 mm 2 m/s 746 mmHg 33%
    14:00 +19°C° 0 mm 2 m/s 746 mmHg 34%
    15:00 +19°C° 0 mm 2 m/s 746 mmHg 35%
    16:00 +19°C° 0 mm 2 m/s 746 mmHg 36%
    17:00 +18°C° 0 mm 2 m/s 746 mmHg 43%
    18:00 +17°C° 0 mm 2 m/s 746 mmHg 50%
    19:00 +16°C° 0 mm 2 m/s 746 mmHg 57%
    20:00 +14°C° 0 mm 2 m/s 746 mmHg 62%
    21:00 +12°C° 0 mm 2 m/s 747 mmHg 67%
    22:00 +9°C° 0 mm 2 m/s 747 mmHg 72%
    23:00 +9°C° 0 mm 1 m/s 747 mmHg 73%

    Depois de amanhã, 5 Junho, Sexta-feira

    Tempo Temperatura Precipitação Vento Pressão Humidade
    00:00 +9°C° 0 mm 1 m/s 747 mmHg 74%
    01:00 +8°C° 0 mm 1 m/s 747 mmHg 76%
    02:00 +8°C° 0 mm 1 m/s 747 mmHg 79%
    03:00 +8°C° 0 mm 1 m/s 748 mmHg 81%
    04:00 +8°C° 0 mm 1 m/s 748 mmHg 84%
    05:00 +10°C° 0 mm 1 m/s 748 mmHg 76%
    06:00 +13°C° 0 mm 1 m/s 748 mmHg 67%
    07:00 +15°C° 0 mm 1 m/s 748 mmHg 58%
    08:00 +16°C° 0 mm 1 m/s 748 mmHg 52%
    09:00 +18°C° 0 mm 2 m/s 748 mmHg 46%
    10:00 +19°C° 0 mm 2 m/s 749 mmHg 40%
    11:00 +19°C° 0 mm 3 m/s 748 mmHg 39%
    12:00 +20°C° 0 mm 3 m/s 748 mmHg 38%
    13:00 +21°C° 0 mm 3 m/s 748 mmHg 37%
    14:00 +21°C° 0 mm 3 m/s 748 mmHg 37%
    15:00 +21°C° 0 mm 3 m/s 748 mmHg 37%
    16:00 +21°C° 0 mm 3 m/s 748 mmHg 38%
    17:00 +20°C° 0 mm 2 m/s 748 mmHg 44%
    18:00 +19°C° 0 mm 2 m/s 748 mmHg 51%
    19:00 +18°C° 0 mm 2 m/s 748 mmHg 58%
    20:00 +16°C° 0 mm 2 m/s 748 mmHg 63%
    21:00 +14°C° 0 mm 2 m/s 748 mmHg 68%
    22:00 +12°C° 0 mm 2 m/s 748 mmHg 73%
    23:00 +11°C° 0 mm 1 m/s 749 mmHg 77%

    6 Junho, Sábado

    Tempo Temperatura Precipitação Vento Pressão Humidade
    00:00 +10°C° 0 mm 1 m/s 749 mmHg 81%
    01:00 +10°C° 0 mm 1 m/s 749 mmHg 85%
    02:00 +9°C° 0 mm 1 m/s 749 mmHg 86%
    03:00 +9°C° 0 mm 1 m/s 749 mmHg 87%
    04:00 +9°C° 0 mm 1 m/s 749 mmHg 88%
    05:00 +11°C° 0 mm 1 m/s 749 mmHg 78%
    06:00 +14°C° 0 mm 1 m/s 750 mmHg 69%
    07:00 +16°C° 0 mm 1 m/s 750 mmHg 60%
    08:00 +18°C° 0 mm 1 m/s 750 mmHg 53%
    09:00 +19°C° 0 mm 2 m/s 750 mmHg 46%
    10:00 +20°C° 0 mm 2 m/s 750 mmHg 40%
    11:00 +21°C° 0 mm 2 m/s 750 mmHg 37%
    12:00 +23°C° 0 mm 2 m/s 749 mmHg 35%
    13:00 +24°C° 0 mm 2 m/s 749 mmHg 33%
    14:00 +24°C° 0 mm 2 m/s 749 mmHg 34%
    15:00 +24°C° 0 mm 2 m/s 749 mmHg 34%
    16:00 +24°C° 0 mm 2 m/s 749 mmHg 34%
    17:00 +23°C° 0 mm 2 m/s 749 mmHg 42%
    18:00 +22°C° 0 mm 1 m/s 748 mmHg 50%
    19:00 +21°C° 0 mm 1 m/s 748 mmHg 58%
    20:00 +19°C° 0 mm 1 m/s 749 mmHg 64%
    21:00 +16°C° 0 mm 1 m/s 749 mmHg 70%
    22:00 +14°C° 0 mm 1 m/s 749 mmHg 76%
    23:00 +13°C° 0 mm 1 m/s 749 mmHg 80%

    7 Junho, Domingo

    Tempo Temperatura Precipitação Vento Pressão Humidade
    00:00 +12°C° 0 mm 1 m/s 749 mmHg 83%
    01:00 +12°C° 0 mm 1 m/s 749 mmHg 87%
    02:00 +11°C° 0 mm 1 m/s 749 mmHg 87%
    03:00 +11°C° 0 mm 1 m/s 750 mmHg 87%
    04:00 +11°C° 0 mm 1 m/s 750 mmHg 87%
    05:00 +13°C° 0 mm 1 m/s 750 mmHg 78%
    06:00 +16°C° 0 mm 1 m/s 750 mmHg 69%
    07:00 +19°C° 0 mm 1 m/s 750 mmHg 61%
    08:00 +20°C° 0 mm 1 m/s 750 mmHg 55%
    09:00 +22°C° 0 mm 1 m/s 750 mmHg 49%
    10:00 +24°C° 0 mm 1 m/s 750 mmHg 43%
    11:00 +24°C° 0 mm 2 m/s 750 mmHg 40%
    12:00 +25°C° 0 mm 2 m/s 750 mmHg 37%
    13:00 +26°C° 0 mm 2 m/s 750 mmHg 35%
    14:00 +26°C° 0 mm 2 m/s 750 mmHg 36%
    15:00 +25°C° 0 mm 2 m/s 749 mmHg 36%
    16:00 +25°C° 0 mm 3 m/s 749 mmHg 37%
    17:00 +24°C° 0 mm 2 m/s 749 mmHg 45%
    18:00 +23°C° 0 mm 2 m/s 749 mmHg 53%
    19:00 +21°C° 0 mm 2 m/s 749 mmHg 60%
    20:00 +19°C° 0 mm 1 m/s 749 mmHg 67%
    21:00 +16°C° 0 mm 1 m/s 749 mmHg 73%
    22:00 +14°C° 0 mm 1 m/s 749 mmHg 80%
    23:00 +13°C° 0 mm 1 m/s 749 mmHg 82%

    8 Junho, Segunda-feira

    Tempo Temperatura Precipitação Vento Pressão Humidade
    00:00 +13°C° 0 mm 1 m/s 749 mmHg 84%
    01:00 +12°C° 0 mm 1 m/s 750 mmHg 87%
    02:00 +12°C° 0 mm 1 m/s 750 mmHg 87%
    03:00 +12°C° 0 mm 1 m/s 750 mmHg 88%
    04:00 +12°C° 0 mm 1 m/s 750 mmHg 89%
    05:00 +14°C° 0 mm 1 m/s 750 mmHg 81%
    06:00 +16°C° 0 mm 1 m/s 750 mmHg 73%
    07:00 +18°C° 0 mm 2 m/s 750 mmHg 64%
    08:00 +20°C° 0 mm 2 m/s 750 mmHg 59%
    09:00 +21°C° 0 mm 3 m/s 750 mmHg 54%
    10:00 +24°C° 0 mm 3 m/s 750 mmHg 49%
    11:00 +25°C° 0 mm 3 m/s 750 mmHg 47%
    12:00 +26°C° 0 mm 4 m/s 749 mmHg 45%
    13:00 +26°C° 0 mm 4 m/s 749 mmHg 43%
    14:00 +26°C° 0 mm 4 m/s 749 mmHg 45%
    15:00 +26°C° 0 mm 4 m/s 749 mmHg 47%
    16:00 +26°C° 0 mm 4 m/s 748 mmHg 49%
    17:00 +26°C° 0 mm 3 m/s 748 mmHg 55%
    18:00 +25°C° 0 mm 3 m/s 748 mmHg 60%
    19:00 +24°C° 0 mm 3 m/s 748 mmHg 66%
    20:00 +21°C° 0 mm 2 m/s 748 mmHg 72%
    21:00 +19°C° 0 mm 2 m/s 748 mmHg 78%
    22:00 +17°C° 0 mm 2 m/s 748 mmHg 84%
    23:00 +16°C° 0 mm 2 m/s 749 mmHg 87%
    Mostrar mais